Theta_e
356 357 358 358 359 362 363 364 365 363 362 361 360 360 360 358 358 358 358 359 359 358 358 358 358 358 358 357 357 356 356 357 357 357 357 357 357 357 356 356 355 354 353 353 354 353 353 352 352 351 351 351 350 350 350 350 350 349 350 350 349 350 350 348 347 346 346 348 347 346 346 346 345 345 344 344 344 343 343 344 346 340 343 345 345
355 358 359 361 358 361 362 363 364 364 361 361 361 360 359 358 358 358 359 359 359 358 358 358 358 358 358 357 356 355 356 356 357 357 357 356 356 355 355 354 354 354 354 354 354 353 353 352 352 352 351 351 350 350 350 350 350 349 349 349 349 349 349 349 349 348 348 348 348 347 347 347 346 346 346 346 345 344 344 345 344 339 342 344 344
356 358 359 360 360 360 361 363 363 364 363 361 360 359 358 358 358 359 359 359 358 358 358 357 357 358 357 356 355 355 356 356 356 356 356 355 354 354 354 354 354 354 354 354 354 354 353 353 352 352 352 352 352 351 350 350 350 350 349 349 349 349 349 348 348 348 347 348 348 348 347 347 346 346 345 345 345 346 346 346 345 342 343 343 342
356 358 358 361 359 359 360 361 363 363 362 360 359 359 358 358 358 359 359 358 358 358 357 357 358 357 357 356 355 355 355 356 356 355 355 354 354 354 353 353 354 354 354 354 354 354 354 353 353 353 353 353 353 352 351 350 349 349 350 349 349 349 348 348 347 349 348 347 347 347 346 346 346 346 345 346 345 345 345 345 345 345 344 344 343
357 357 358 359 362 360 360 361 362 363 362 359 359 359 359 359 358 358 358 358 358 357 357 358 357 357 356 355 355 355 355 356 355 355 355 354 354 353 353 354 353 353 354 354 355 355 354 354 354 354 354 354 353 352 351 351 351 350 350 350 349 348 348 348 348 347 347 346 345 347 345 343 345 346 345 346 345 345 345 345 344 344 343 343 344
357 356 357 356 358 362 359 360 360 362 362 361 359 359 359 360 360 358 358 358 358 357 358 357 357 356 355 355 354 355 355 356 355 355 354 354 354 354 354 354 353 354 354 354 355 355 355 355 355 354 353 353 352 352 352 350 350 350 350 350 350 349 349 349 347 346 347 345 346 347 345 345 344 344 346 345 345 345 345 345 345 344 344 343 342
357 356 355 355 357 360 358 359 360 362 362 361 361 361 360 360 360 358 358 358 358 358 357 357 356 356 355 354 354 355 355 355 355 354 354 354 355 354 354 354 354 354 355 355 355 355 356 355 355 355 354 353 353 353 352 350 350 350 350 350 350 349 348 347 347 346 346 349 345 346 344 343 344 344 346 345 346 345 345 345 345 345 344 344 341
356 356 353 355 357 359 359 359 359 361 361 361 361 360 360 360 360 359 359 358 358 357 357 356 356 355 355 354 354 355 355 355 354 354 354 354 354 354 354 354 354 355 355 355 355 355 355 356 356 356 355 355 354 353 353 352 352 350 350 349 349 349 348 347 345 346 347 342 342 343 344 344 344 345 346 346 346 345 345 345 345 345 344 344 343
355 355 353 355 358 358 358 358 359 360 361 361 360 360 360 360 359 359 358 357 357 357 356 355 355 355 354 354 355 355 355 355 354 354 354 354 355 355 355 355 355 355 355 355 355 354 354 356 356 356 355 354 353 353 353 352 352 352 352 351 350 348 347 346 346 346 348 344 343 343 344 342 343 345 346 346 345 345 344 343 345 343 344 345 344
355 355 354 356 358 358 358 358 358 359 360 360 360 359 359 359 358 358 357 357 356 356 355 354 354 354 354 354 355 355 355 355 354 354 354 354 355 355 355 355 355 355 356 356 356 354 356 356 356 355 355 354 352 353 353 353 353 353 353 352 351 351 349 347 347 350 345 343 342 344 345 355 343 344 346 346 346 345 345 346 347 346 346 345 344
356 355 356 356 358 358 357 357 358 358 359 360 359 358 358 358 357 357 357 356 356 355 354 353 353 354 354 354 354 354 354 355 355 355 355 355 355 355 356 356 356 356 356 356 357 354 356 356 355 355 354 353 353 352 352 353 352 352 353 353 352 350 350 350 347 344 345 344 346 346 345 350 344 346 347 346 345 346 345 345 345 345 345 345 344
355 357 356 356 361 358 356 356 357 358 358 358 358 358 357 357 357 357 356 355 354 354 353 353 353 354 354 354 354 355 355 355 355 356 356 355 356 356 356 357 357 357 357 357 357 357 357 356 355 354 353 353 352 352 352 352 352 352 351 353 353 352 350 353 345 345 345 344 344 346 344 343 344 346 346 346 345 345 345 345 345 345 345 344 344
355 355 356 356 358 357 356 356 356 357 358 358 358 358 358 358 357 356 355 355 354 354 353 353 354 354 354 355 355 355 355 355 356 356 356 356 357 356 357 357 357 357 358 358 356 356 355 355 354 353 353 352 352 351 351 351 351 352 352 352 352 353 351 352 343 344 345 346 346 345 345 346 346 346 345 345 346 345 345 345 345 345 344 344 344
355 355 355 355 357 358 357 356 356 356 357 357 357 357 357 356 356 355 355 354 353 353 353 353 353 354 354 354 354 354 355 355 355 356 356 357 357 357 357 357 357 357 357 356 355 354 353 352 352 351 350 350 350 350 350 350 350 351 352 352 353 353 353 353 346 344 345 344 346 344 346 346 348 346 345 346 346 346 346 345 344 344 343 342 342
354 353 354 354 355 356 358 356 356 356 355 355 355 356 355 355 355 354 354 353 353 353 353 353 353 353 353 354 354 354 355 355 356 356 357 357 358 358 357 357 357 357 355 354 353 352 352 351 350 350 350 350 350 350 349 350 349 350 350 352 354 353 350 345 341 344 343 344 344 345 346 346 347 346 346 345 346 346 345 344 343 342 341 341 341
353 353 352 353 353 354 357 358 357 356 355 355 355 355 355 354 354 353 353 352 352 352 352 352 352 352 353 354 354 354 355 355 356 356 357 357 357 357 357 357 356 355 354 352 351 351 351 351 349 348 348 349 350 349 348 348 348 350 351 352 353 353 352 353 344 347 345 346 345 347 346 346 346 346 345 345 345 345 344 343 342 341 341 341 341
353 354 351 351 352 351 351 356 355 356 356 356 355 355 354 354 353 352 352 352 351 351 351 352 352 353 353 354 354 355 355 356 356 356 357 357 357 357 356 355 354 353 352 352 352 351 350 348 349 349 349 350 350 349 348 348 348 350 353 353 352 353 354 355 345 346 342 342 344 347 348 348 347 345 345 345 345 344 343 342 341 341 341 341 341
353 351 350 350 351 349 350 352 355 356 356 357 355 355 354 354 353 352 352 351 351 351 352 352 352 353 353 354 354 354 355 355 356 356 357 357 356 356 354 353 353 352 352 351 351 350 349 349 350 350 350 350 350 348 347 347 347 349 352 353 353 353 353 351 349 346 344 345 345 348 349 349 347 346 345 345 345 344 342 342 342 341 339 339 339
352 351 350 350 348 348 348 351 353 350 353 353 355 356 355 354 353 352 352 352 352 352 352 352 352 353 353 354 354 354 354 355 355 356 356 356 356 355 353 353 353 352 352 352 351 350 349 349 349 350 350 349 348 348 347 345 347 345 349 353 352 352 353 352 350 349 347 348 348 349 348 348 346 345 346 344 344 344 343 343 342 341 340 338 338
351 351 350 350 348 347 350 350 348 350 351 352 353 354 355 354 354 353 353 353 352 352 352 352 352 352 352 353 353 355 355 356 355 356 355 355 354 352 353 353 353 352 352 352 351 350 350 350 350 350 350 349 347 346 345 346 344 347 346 350 352 352 350 349 347 346 346 345 348 349 349 348 346 345 345 344 344 343 343 342 341 339 338 337 336
350 351 352 349 348 349 349 348 348 350 351 351 353 351 353 355 355 354 354 353 352 352 351 351 351 352 352 353 353 354 356 357 355 354 354 355 355 353 352 353 352 352 352 352 351 351 351 350 350 350 348 345 343 343 344 343 344 345 346 349 352 351 350 351 348 347 348 347 349 347 349 348 346 345 344 344 344 344 343 342 340 339 338 336 335
342 342 340 350 349 350 349 347 348 350 350 349 351 351 355 355 356 356 356 354 353 352 352 351 351 352 352 353 353 353 352 350 351 354 354 357 354 353 353 353 352 352 351 351 351 351 351 351 351 348 345 344 341 344 344 346 344 343 343 349 351 349 351 348 348 347 348 350 348 348 349 348 346 344 344 344 344 343 342 341 339 339 339 336 334
331 333 337 337 339 347 349 347 348 349 350 352 352 355 353 352 355 354 353 354 353 351 350 349 350 350 351 348 351 353 350 350 353 350 351 351 355 353 352 352 351 351 351 350 351 352 351 350 348 344 344 341 346 338 338 340 342 343 343 346 348 344 344 348 347 349 348 350 349 350 350 348 346 345 344 343 345 343 341 340 339 339 337 336 335
333 334 335 338 337 337 348 349 350 352 353 352 352 351 353 352 351 351 353 354 353 351 351 349 348 347 346 350 350 352 352 353 352 352 353 354 354 353 352 352 351 350 350 350 351 350 349 347 347 346 345 344 339 336 337 340 340 344 344 340 337 342 345 345 345 349 351 347 347 350 350 348 346 345 345 343 344 342 341 340 340 338 336 335 335
339 340 342 338 336 336 336 345 351 350 351 349 352 348 351 347 349 350 351 352 352 351 350 348 345 344 348 351 347 353 351 353 353 354 349 349 348 350 350 348 348 348 348 347 345 340 349 340 342 344 340 338 337 339 340 340 341 338 338 337 338 343 343 345 346 346 350 352 349 351 350 348 347 345 344 343 343 342 341 341 340 337 336 335 335
338 336 334 334 337 336 337 336 344 348 350 354 350 348 351 349 349 350 350 350 350 350 350 350 348 351 350 344 350 350 351 350 351 349 345 347 344 343 343 344 344 346 345 346 344 344 342 341 340 338 337 339 338 339 340 339 338 334 335 338 339 342 342 340 345 346 352 352 351 351 350 348 346 345 344 344 344 343 342 342 341 338 336 335 335
336 332 333 333 335 338 338 337 336 347 348 347 350 351 348 348 349 349 347 345 348 349 348 348 349 350 345 346 347 345 342 343 344 345 342 345 344 342 341 344 345 343 345 343 345 345 342 341 340 339 337 337 335 338 337 338 338 333 335 334 337 339 341 341 346 346 348 352 351 350 349 347 346 345 345 344 343 342 342 341 340 337 336 335 336
331 334 335 337 335 335 337 337 334 337 343 349 347 348 348 348 350 347 349 351 348 348 346 348 350 350 352 351 342 340 340 341 345 345 343 343 342 343 343 342 342 341 345 345 343 343 340 343 341 337 335 335 334 338 337 335 335 338 334 336 338 341 343 341 346 347 350 350 350 351 348 346 345 344 343 344 343 342 342 341 338 337 336 335 335
332 332 334 335 336 334 336 338 335 336 338 346 346 347 347 349 349 348 349 350 348 348 347 348 349 348 351 352 349 340 336 338 339 339 341 342 343 343 342 341 343 340 345 342 341 344 343 340 338 336 338 336 337 338 337 335 337 338 335 335 337 339 342 345 347 344 351 352 349 349 347 345 344 344 343 343 343 341 341 341 339 337 336 335 335
332 334 336 336 335 335 335 336 335 335 334 333 340 346 348 348 349 349 350 351 349 349 350 348 349 346 349 352 352 349 345 340 337 333 333 337 342 348 345 342 340 343 344 343 342 342 341 338 336 335 334 334 337 338 340 335 334 336 336 338 339 340 343 343 345 345 350 351 352 349 346 345 344 343 343 342 343 342 341 340 338 337 336 335 336
336 336 335 334 334 335 335 338 336 336 335 334 335 342 347 347 349 350 350 351 349 351 351 349 348 348 350 353 352 351 350 350 346 341 337 339 341 343 340 344 342 346 342 342 347 344 342 340 337 337 337 335 337 337 337 336 336 335 338 337 338 342 341 345 344 346 348 352 349 348 347 344 343 342 342 342 342 342 341 340 339 338 336 335 337
335 334 337 335 335 336 337 337 336 336 336 334 333 332 340 347 348 349 350 350 353 350 350 349 348 348 351 353 353 352 353 351 352 350 344 344 336 333 333 340 341 340 341 340 342 343 341 337 339 337 336 337 339 339 340 335 335 334 336 336 338 341 341 344 344 346 349 350 351 350 349 346 343 342 342 342 342 341 341 340 339 337 336 335 336
337 339 339 336 335 336 336 336 336 337 336 335 333 333 332 338 346 347 348 350 352 351 349 349 349 349 351 352 352 352 352 352 353 352 350 345 339 337 335 341 338 340 342 345 346 346 340 342 340 337 335 335 339 340 336 337 335 334 336 336 339 339 342 343 347 348 349 351 350 351 350 349 347 342 341 342 341 341 341 340 339 338 336 335 336
335 340 339 337 337 337 338 336 336 337 336 336 335 335 336 337 340 348 348 349 351 348 348 350 348 348 350 351 351 351 351 352 352 351 349 346 348 347 344 341 336 343 346 350 344 339 336 335 336 333 331 331 335 339 337 334 332 334 337 336 340 342 341 341 347 348 351 351 351 349 347 347 348 346 344 341 341 340 340 339 338 337 336 335 336
336 337 336 336 340 340 339 338 338 338 337 337 336 336 336 338 338 344 349 349 350 349 349 350 348 348 349 348 349 349 350 351 352 350 347 346 349 350 348 345 343 347 343 341 336 337 337 335 334 330 332 331 334 339 339 338 333 333 336 340 336 339 344 345 348 348 348 353 351 347 348 348 346 346 345 344 341 341 340 339 338 337 337 336 337
323 325 332 334 333 340 339 339 340 340 339 339 337 336 335 335 337 339 340 348 349 349 349 350 349 348 348 348 349 349 349 350 349 349 349 348 345 345 346 347 350 347 337 341 338 337 336 335 336 333 330 328 333 338 340 337 337 336 337 339 342 343 341 345 347 348 349 351 352 347 346 345 346 346 345 344 344 343 340 339 338 336 337 337 336
325 325 324 327 334 338 340 340 339 339 339 338 337 334 332 335 335 339 338 341 343 348 350 352 351 350 348 346 348 349 348 350 350 349 349 349 345 344 343 347 352 346 340 342 334 334 338 336 339 333 331 330 330 335 339 339 339 338 339 340 343 345 345 347 349 350 346 351 351 349 350 346 347 345 348 344 343 344 341 340 338 337 336 337 336
326 327 325 324 324 335 338 344 343 341 342 338 337 336 335 337 338 337 340 340 340 349 350 352 351 350 349 347 348 349 348 348 350 348 348 348 348 345 343 346 347 346 344 343 333 334 340 339 337 336 331 330 331 337 339 339 338 339 340 339 345 344 346 348 350 349 350 348 350 349 351 349 347 347 347 346 345 344 343 340 338 337 336 336 336
323 325 327 327 326 328 338 340 345 345 345 344 339 335 335 335 338 337 338 339 341 348 348 349 351 351 350 349 348 349 348 347 348 347 346 345 345 345 344 345 344 344 346 343 336 336 340 338 338 337 337 331 333 339 341 340 339 339 339 342 345 350 349 349 349 351 348 350 350 349 350 351 345 347 346 346 346 346 343 342 341 339 337 335 337
323 323 323 325 325 324 331 340 344 345 345 343 338 333 333 332 333 336 336 337 344 346 349 350 352 351 349 349 349 349 348 348 348 348 348 346 345 346 345 345 342 345 345 342 335 336 339 338 337 338 336 336 336 338 341 340 342 342 342 346 349 348 350 349 350 350 350 349 350 350 350 350 344 344 346 346 345 344 343 342 343 339 338 336 337
322 323 320 319 320 322 324 330 340 344 343 339 334 332 333 334 336 336 338 341 343 347 349 351 351 350 349 348 348 348 348 348 347 346 347 346 348 348 347 345 343 342 345 343 340 336 340 339 337 339 336 332 331 337 341 342 339 338 342 341 345 349 350 349 350 348 348 345 346 349 349 348 347 343 346 346 344 345 344 342 344 340 338 338 337
321 322 319 319 320 320 322 324 332 343 343 340 337 335 336 339 341 342 343 344 343 344 345 347 348 348 349 348 348 348 348 347 346 346 347 347 347 347 348 346 343 341 344 344 344 340 341 339 338 338 334 330 334 336 340 340 336 331 333 335 336 340 346 348 346 346 346 345 347 350 350 349 348 346 346 344 345 345 344 345 343 340 339 338 337
320 321 321 320 319 319 320 321 324 329 342 344 343 339 343 346 345 345 344 344 348 348 347 347 349 348 349 349 348 348 347 347 346 344 344 345 346 347 349 347 345 341 341 341 343 344 344 339 339 330 328 330 335 340 342 339 331 335 335 332 328 330 340 342 347 347 344 344 345 348 347 349 349 346 344 345 344 345 346 344 342 342 340 338 337
319 320 320 320 320 320 320 320 321 325 330 342 345 345 347 347 349 349 348 346 345 348 349 349 348 348 346 348 348 348 347 346 346 344 344 344 345 345 347 347 345 344 340 339 340 337 342 338 335 331 333 329 332 337 341 341 336 335 326 322 326 325 321 330 336 342 345 344 344 343 345 346 348 348 347 341 344 345 346 346 344 343 341 340 339
318 318 318 319 320 320 321 321 321 322 326 333 342 347 347 346 344 345 347 348 347 346 346 344 346 347 346 347 347 347 347 346 347 346 343 344 345 345 346 346 346 345 340 337 339 337 335 336 334 332 334 329 330 337 339 341 340 339 330 328 326 319 320 329 331 338 343 341 343 343 344 347 346 347 345 342 347 347 346 345 345 343 340 340 340
317 317 319 319 320 320 321 322 322 322 324 329 337 345 345 341 338 339 341 342 339 340 340 340 342 344 343 347 348 347 347 347 347 346 345 344 344 344 346 345 345 346 343 335 337 339 338 335 332 332 331 334 336 335 335 342 341 341 338 338 336 329 324 329 325 323 342 343 342 341 344 345 347 346 342 344 346 346 346 346 347 345 341 341 340
317 318 318 319 320 321 322 322 322 322 324 328 333 339 342 343 341 339 342 340 339 341 345 345 344 344 346 346 346 349 347 347 347 346 346 345 344 344 344 345 346 346 346 341 335 338 337 336 334 333 329 330 336 332 337 339 341 344 340 341 339 338 335 333 325 327 326 338 340 340 342 344 346 346 344 344 345 345 346 346 347 345 343 342 341
316 317 318 319 319 320 321 322 323 323 324 326 331 336 339 343 342 341 340 339 341 341 345 346 348 347 344 346 347 348 349 348 347 346 346 345 344 343 343 345 345 345 343 342 338 337 338 339 340 339 336 332 336 332 339 338 335 337 340 340 339 340 339 337 335 330 326 325 332 339 342 342 343 342 345 345 345 344 344 346 347 344 342 341 341
316 316 317 318 319 320 321 322 322 323 324 325 326 332 338 340 342 339 337 340 340 342 344 344 343 345 344 345 347 346 347 350 349 348 347 345 345 345 343 343 344 345 343 342 341 340 340 338 340 343 340 338 339 337 340 337 335 336 338 339 338 337 337 338 339 336 328 325 325 333 335 339 341 342 342 345 346 347 346 346 345 346 342 342 341
316 317 317 318 318 319 319 321 321 323 324 324 325 328 333 338 340 341 336 335 339 338 339 342 344 344 343 344 345 345 346 349 350 349 348 346 345 345 344 342 344 344 343 341 341 341 341 339 342 345 345 345 344 339 340 340 337 340 339 339 337 337 336 335 336 335 334 332 325 327 334 335 332 337 341 341 343 345 346 346 346 345 342 341 341
316 316 317 316 318 318 319 319 321 322 323 324 325 326 328 332 339 339 339 337 336 336 338 336 345 344 342 343 343 344 346 346 349 350 349 348 347 345 344 343 343 344 343 341 341 341 342 341 342 345 346 346 341 340 342 343 340 341 339 339 338 337 334 333 335 336 335 332 327 325 333 336 336 336 339 341 342 342 343 346 345 344 342 341 340
Wind_Speed
11 13 14 15 12 12 11 11 10 17 21 23 22 22 22 21 21 21 20 20 21 20 20 20 20 20 20 21 19 19 18 17 16 15 15 16 15 16 16 16 16 16 16 16 16 16 16 16 15 14 15 15 15 14 14 14 14 14 13 14 14 13 13 13 13 13 13 14 14 13 12 13 12 12 12 11 10 9 8 9 12 8 8 12 12
13 13 14 15 11 13 13 10 12 12 22 22 22 22 22 22 22 21 21 21 21 21 20 20 20 20 19 20 19 19 18 17 16 16 16 16 16 16 16 16 16 16 16 16 16 16 16 15 15 15 15 15 14 14 14 13 13 14 14 14 13 13 13 12 13 12 12 12 13 13 13 13 13 13 12 11 10 10 10 10 15 9 9 12 12
13 12 13 16 13 13 13 13 12 11 14 23 23 23 22 22 22 22 22 21 21 21 20 20 20 19 19 20 19 19 18 17 16 16 16 16 16 16 16 16 16 16 16 16 16 16 15 15 15 14 14 15 14 14 13 13 13 13 14 13 13 12 12 12 11 11 12 12 12 13 13 14 13 12 12 12 11 11 11 14 14 12 10 12 10
16 13 14 15 12 13 14 15 12 12 18 23 24 23 22 22 22 22 22 22 22 21 21 20 20 20 19 20 20 20 19 18 17 17 17 16 16 16 16 16 16 16 16 16 16 15 14 15 15 14 14 14 14 14 13 12 13 13 12 12 12 12 11 11 11 10 7 7 9 9 8 11 12 12 12 11 11 12 11 11 12 12 11 10 10
16 15 15 16 16 14 14 16 13 14 17 23 23 23 22 22 22 23 22 22 21 21 20 20 20 19 20 20 20 20 19 18 17 17 17 16 15 16 16 16 16 16 16 16 16 15 14 15 14 14 14 14 13 12 12 11 12 12 12 11 11 11 11 10 10 8 6 2 3 2 9 11 10 12 11 11 11 11 11 10 11 10 10 10 10
15 14 16 16 16 17 14 16 18 15 13 18 21 23 21 20 20 23 22 21 21 20 20 20 20 19 19 19 20 20 19 17 18 17 17 16 15 16 17 16 16 16 16 16 15 15 14 14 14 13 13 14 13 12 11 11 11 11 11 11 11 10 10 9 8 6 5 3 4 7 8 9 10 9 11 11 11 11 10 10 10 9 9 8 9
14 13 15 16 14 18 16 17 19 15 14 16 17 19 20 20 18 22 22 21 21 20 20 19 19 19 19 19 19 19 18 17 18 17 17 16 15 17 17 16 16 16 16 15 15 14 14 14 14 13 13 13 12 11 10 10 10 10 10 10 10 9 9 8 6 2 3 5 7 7 7 9 10 8 11 10 10 10 10 9 9 9 9 8 9
12 12 15 15 14 18 17 18 19 15 15 15 16 20 20 19 18 20 21 21 21 21 21 19 19 19 19 19 19 20 19 17 18 18 17 16 15 16 17 16 16 15 16 15 15 14 14 14 14 13 13 13 12 11 11 10 10 10 10 10 9 8 8 7 4 2 9 4 6 7 8 9 10 8 10 10 9 9 8 8 9 8 9 9 9
12 14 15 14 15 22 17 18 19 19 16 16 16 17 18 18 21 20 20 20 20 19 19 19 19 19 19 19 19 19 18 18 17 17 17 16 14 14 15 16 16 15 15 15 14 14 14 13 13 12 12 12 11 10 9 9 9 10 10 9 9 8 6 5 4 7 1 7 8 8 9 9 9 10 10 10 9 9 10 6 7 10 10 11 10
13 13 14 13 16 20 19 18 19 19 17 17 17 17 19 18 20 20 19 20 19 19 20 19 19 19 18 18 18 18 17 17 17 17 17 16 16 15 14 14 15 15 15 15 13 13 13 12 12 12 12 11 10 9 9 8 8 8 8 8 8 8 6 6 8 9 6 7 10 11 9 10 10 10 10 9 9 10 10 12 13 12 11 12 12
14 13 13 13 21 19 18 17 18 18 17 18 18 20 20 20 19 19 19 18 18 19 19 20 20 19 18 18 18 18 17 17 17 17 16 17 16 15 14 13 14 14 14 14 13 12 12 12 12 11 11 10 9 8 7 7 7 7 7 6 6 5 5 7 10 6 6 8 8 8 9 3 10 9 10 10 10 11 11 12 12 12 12 12 11
14 13 13 13 21 19 18 17 17 18 19 19 20 20 18 19 20 20 20 19 20 19 20 20 19 18 18 18 17 17 17 17 16 16 16 16 16 15 14 13 12 11 11 12 12 12 12 11 11 11 10 9 9 8 8 7 7 7 6 6 6 5 5 7 5 7 7 8 8 8 9 11 11 10 10 10 10 11 11 11 11 12 12 11 12
15 14 12 15 19 18 18 18 18 18 18 17 18 19 19 17 18 20 21 20 18 17 18 19 17 17 17 17 17 17 17 16 16 16 16 15 15 15 14 13 12 11 11 11 11 12 12 11 11 11 10 9 8 7 7 7 6 6 6 5 6 5 7 6 1 5 7 8 6 7 10 9 10 10 9 10 10 11 11 11 12 11 12 12 12
14 14 13 17 16 20 17 18 18 18 17 18 17 17 17 16 16 18 18 18 19 17 17 18 17 16 15 15 15 16 16 16 16 15 15 15 14 14 14 13 12 11 11 11 11 12 12 11 11 10 9 8 7 7 7 7 7 6 6 6 6 6 7 9 2 6 7 7 6 8 8 9 9 9 9 10 10 11 11 11 12 12 12 12 12
13 15 16 16 18 19 20 17 17 17 16 17 17 17 17 17 16 14 15 17 18 18 16 15 17 17 15 13 14 15 15 16 15 14 15 14 14 13 14 13 12 11 11 11 11 11 11 11 11 9 9 7 7 6 7 7 7 7 7 7 7 8 10 1 5 6 6 5 6 7 7 8 9 9 9 10 11 11 11 12 12 12 11 11 11
13 16 17 17 19 18 18 18 17 17 17 16 17 16 16 17 18 18 17 17 18 18 17 15 15 18 17 14 13 14 15 16 15 14 14 15 14 13 13 12 13 12 11 11 11 10 10 10 10 9 8 7 6 6 6 7 7 7 7 7 7 9 9 9 6 5 5 5 6 6 7 8 9 8 9 10 11 11 11 12 12 11 11 11 11
13 15 17 18 20 20 17 17 18 17 16 17 16 17 16 16 16 16 16 16 15 18 19 16 14 15 15 15 13 12 13 14 15 13 13 13 13 12 12 12 12 12 12 11 10 10 10 10 8 7 6 6 5 5 5 5 6 7 6 8 8 9 7 8 5 5 6 6 5 4 6 7 9 8 8 9 11 11 11 11 11 11 11 11 11
14 15 17 19 20 20 18 17 18 18 17 17 17 18 17 17 17 17 17 16 16 16 17 18 16 14 14 14 14 13 13 13 14 12 12 12 12 11 11 11 11 12 11 11 10 9 9 8 7 6 6 4 4 4 4 3 4 5 6 8 9 8 7 8 3 5 6 4 5 4 6 11 9 7 8 10 10 11 11 11 12 12 11 11 11
15 17 19 19 20 19 20 17 17 17 17 15 15 17 20 18 18 17 17 17 17 17 17 17 16 15 15 15 15 14 13 13 12 11 11 12 12 11 10 9 10 10 11 11 10 9 8 7 6 5 5 4 3 2 1 1 1 2 2 7 8 8 7 6 3 4 5 3 4 5 8 11 8 7 9 10 10 11 11 12 12 13 12 11 11
14 17 18 19 20 20 18 16 16 16 15 15 15 18 19 21 20 19 18 17 17 17 18 18 17 18 17 17 17 14 13 12 12 11 11 13 12 11 10 9 9 10 10 11 10 9 8 7 6 5 4 2 1 0 0 1 0 1 4 5 8 7 6 5 4 3 4 6 3 6 11 9 8 8 8 10 10 11 12 12 12 12 12 12 11
9 12 14 16 18 20 20 17 17 19 17 16 15 17 18 21 19 20 20 19 19 17 17 19 18 17 16 16 15 12 12 11 11 11 12 10 11 12 10 10 10 11 11 11 10 9 8 7 6 4 2 1 1 3 2 2 1 1 1 5 6 7 4 1 2 3 3 5 4 8 12 9 8 8 9 9 10 11 12 12 11 12 12 12 12
2 3 9 6 14 16 18 18 16 19 17 13 12 13 15 18 17 18 16 17 17 16 14 12 13 12 14 13 10 9 9 10 10 12 10 11 11 11 11 11 11 11 11 11 10 9 8 7 6 3 1 3 5 6 8 7 6 5 6 6 8 5 3 2 1 3 4 4 5 11 12 9 8 8 9 9 10 11 12 12 10 12 12 11 11
7 4 5 4 11 4 16 17 17 16 16 14 11 11 15 13 16 16 14 16 17 15 12 13 11 12 12 11 9 8 9 10 9 10 10 11 11 11 11 11 11 11 10 10 9 9 8 7 5 3 3 6 8 1 2 3 7 9 7 7 6 2 2 2 2 3 3 6 6 14 11 10 9 10 10 8 11 11 11 11 11 11 11 11 11
13 11 11 9 9 8 4 13 15 16 14 12 12 12 12 11 11 12 12 12 12 11 12 12 11 12 11 9 8 8 8 7 10 12 13 10 9 10 11 11 11 10 11 9 9 8 8 7 6 6 9 6 1 1 1 0 1 1 3 2 1 1 2 4 2 3 4 5 8 14 11 10 9 10 10 10 11 11 10 10 11 11 11 10 10
5 3 7 10 8 4 10 5 11 12 12 11 11 12 11 11 10 10 11 11 11 10 10 11 12 12 11 9 10 9 8 7 8 7 9 10 10 9 8 8 8 8 9 7 7 7 8 6 6 7 1 0 0 2 2 2 1 1 1 1 1 1 3 3 2 3 4 6 10 13 12 10 9 10 9 10 11 10 10 11 11 11 11 10 11
7 8 10 9 10 9 8 3 7 9 9 7 10 12 12 10 10 11 9 10 10 10 10 10 11 11 9 9 9 9 8 8 8 8 9 9 10 9 9 9 9 8 7 6 5 5 5 3 2 2 2 1 0 0 1 2 2 1 1 1 0 2 3 4 4 3 5 7 10 13 12 11 10 10 11 10 10 10 9 10 11 11 11 10 11
5 9 10 9 11 9 6 5 9 4 9 11 8 10 10 12 11 11 12 11 11 11 10 10 11 11 10 9 8 8 9 9 9 9 9 9 9 9 9 8 8 7 7 6 5 5 3 3 3 2 1 1 0 0 1 1 2 4 3 2 1 3 3 5 5 5 7 6 10 13 13 12 12 11 11 10 9 9 9 10 10 10 11 10 13
8 3 2 9 11 11 11 8 3 10 6 8 9 10 10 11 12 12 11 9 10 11 10 10 10 10 9 8 8 8 8 8 9 10 9 9 9 8 8 7 8 7 7 6 6 5 4 3 2 1 1 1 1 0 1 1 1 2 3 2 4 4 4 5 5 6 9 7 9 12 14 13 13 10 10 10 9 9 9 10 10 10 11 10 12
3 11 11 5 9 11 13 10 9 6 10 6 8 8 9 10 11 11 11 11 10 10 10 10 9 9 9 9 9 9 9 8 9 10 9 9 8 8 7 7 7 7 6 6 6 5 4 3 3 2 2 1 1 1 1 2 1 2 1 5 5 5 5 5 5 6 9 6 7 11 14 13 12 11 11 10 9 9 9 10 10 10 9 10 11
4 9 7 9 11 12 11 11 12 10 6 7 9 8 8 9 11 11 10 11 10 10 11 9 9 9 9 9 9 9 8 9 9 9 10 9 7 7 7 7 7 5 6 6 5 5 4 3 3 2 2 2 1 2 2 1 2 3 3 5 4 5 5 5 5 5 11 4 7 10 14 12 12 11 10 9 9 8 9 11 11 10 9 9 11
7 8 6 7 9 11 11 9 8 9 9 7 6 8 8 8 10 10 10 10 11 10 10 9 9 9 9 9 10 10 8 8 8 8 8 9 8 7 7 6 6 6 6 6 4 5 4 3 2 1 1 1 1 1 1 1 1 3 3 5 4 4 5 5 4 5 11 7 7 9 11 13 11 10 10 10 10 9 10 11 11 10 9 8 13
4 3 5 6 8 10 9 10 8 4 6 8 6 8 11 8 10 9 10 10 11 9 9 9 9 9 10 10 9 9 8 8 7 7 8 9 9 8 8 7 7 6 6 5 6 5 5 4 3 2 1 2 1 0 1 1 2 2 2 4 5 4 4 4 4 5 7 10 5 6 7 9 12 11 10 10 10 9 9 10 11 11 9 9 13
4 4 5 9 9 10 10 11 10 10 7 6 7 6 7 13 8 10 9 9 10 10 10 9 9 9 9 10 9 10 8 8 7 7 5 7 8 9 8 7 7 6 6 6 5 5 5 4 4 3 1 2 2 1 1 1 2 1 2 4 4 4 4 4 4 4 5 7 10 5 6 7 8 10 10 10 9 10 9 10 11 11 9 8 11
3 2 5 10 9 7 9 9 10 11 11 7 6 8 5 8 13 9 9 11 9 10 10 9 9 9 9 11 10 11 9 7 8 8 6 5 6 7 8 8 7 6 6 6 6 5 5 6 6 5 4 3 4 3 3 2 1 2 3 2 4 2 2 4 3 4 4 5 7 6 7 7 5 6 7 10 10 9 9 10 11 11 10 8 9
4 2 6 6 7 7 8 7 11 12 13 12 11 8 7 5 10 9 8 10 9 9 8 9 9 9 10 10 11 11 10 9 7 7 7 6 5 6 6 7 7 7 6 6 6 6 6 6 6 7 6 4 4 2 1 1 1 2 2 2 2 2 2 4 3 3 4 4 6 7 2 2 5 6 6 6 9 9 9 9 10 10 10 8 10
5 6 6 4 8 4 6 6 10 13 11 11 10 10 7 6 6 8 9 7 9 8 8 9 8 9 10 10 12 11 11 9 8 7 7 7 6 5 5 5 6 6 7 6 7 7 7 6 6 5 5 6 5 5 3 2 1 2 1 1 2 1 2 4 3 3 4 3 4 10 4 2 2 6 4 5 5 8 9 8 9 8 10 9 9
6 5 4 5 5 5 7 6 7 9 9 8 8 5 5 6 8 8 11 4 7 8 8 8 8 9 9 9 10 10 12 10 9 9 6 7 6 6 5 5 5 6 7 7 8 8 7 6 5 5 5 5 6 5 4 3 2 2 1 1 1 1 2 3 3 2 3 3 4 3 5 7 6 7 5 5 7 7 9 9 9 8 6 10 11
5 6 6 4 4 5 2 6 7 7 6 8 8 7 7 6 6 10 11 6 11 8 8 7 7 8 9 9 10 10 11 11 10 8 7 7 6 6 5 6 6 6 6 7 8 8 8 7 6 5 5 5 4 4 4 3 2 2 2 2 2 1 3 3 3 2 2 3 3 3 4 6 3 2 4 4 4 6 7 9 8 7 6 9 10
9 7 5 5 6 4 2 3 5 7 7 9 8 4 3 4 6 9 9 10 10 6 6 7 8 8 8 9 10 10 10 11 11 10 7 6 6 6 5 6 6 6 6 7 8 8 8 8 7 6 5 5 4 4 2 2 2 2 2 2 2 3 3 3 3 2 2 3 4 4 4 3 6 4 5 5 5 6 6 8 7 6 6 5 6
11 12 11 4 8 6 5 3 6 7 7 6 7 6 5 9 10 9 10 11 12 10 10 8 8 8 9 10 10 10 10 10 12 12 10 8 7 7 7 7 7 7 7 8 8 8 9 10 9 9 7 5 5 5 4 4 3 3 3 3 2 4 4 3 3 3 3 3 3 3 4 2 4 3 4 4 7 5 6 6 7 7 7 6 5
13 14 13 14 13 8 7 6 5 5 5 6 7 9 10 11 12 13 12 12 10 9 8 8 8 9 11 11 11 10 11 11 12 12 11 10 8 7 8 8 8 8 8 8 8 8 8 8 8 8 9 8 7 6 5 4 4 3 3 3 3 3 4 4 4 3 3 2 2 3 4 2 3 2 4 3 5 6 5 5 5 6 7 8 8
12 12 13 11 12 13 8 8 8 6 8 9 10 11 13 12 13 12 10 9 9 9 10 10 10 9 10 11 11 11 12 11 11 12 11 11 9 9 8 8 8 8 7 7 8 7 7 8 8 7 7 8 6 7 7 6 5 5 5 5 4 4 3 3 4 4 3 2 2 3 3 3 2 2 2 4 5 6 5 4 6 7 7 7 8
10 10 10 11 9 9 12 8 6 9 9 11 11 11 12 13 11 9 9 7 8 8 8 9 10 11 11 11 11 11 12 12 12 11 10 11 10 8 7 7 8 8 8 8 7 8 7 9 10 8 8 8 6 7 8 8 6 5 4 3 5 5 5 4 3 3 2 2 2 4 4 4 3 4 6 3 5 5 4 7 7 8 8 7 7
9 9 9 10 7 6 6 9 9 8 9 9 10 12 12 12 11 10 8 8 6 7 9 9 10 11 13 12 11 11 12 12 12 12 11 10 11 10 9 7 8 8 9 8 9 10 8 8 9 9 9 9 8 7 7 8 6 6 6 6 3 5 5 6 5 5 3 3 3 4 4 4 5 3 1 4 5 5 5 5 6 7 8 8 7
9 9 9 8 6 9 8 7 7 8 8 10 11 11 10 8 7 7 9 8 8 8 8 10 10 11 11 12 12 12 12 12 12 13 12 11 11 11 10 9 8 9 9 10 9 10 10 10 11 9 10 9 8 6 6 7 8 6 5 4 4 5 5 5 4 5 6 4 3 3 4 5 5 5 2 3 3 5 6 6 7 7 8 8 7
8 8 8 8 8 8 9 9 7 7 7 8 11 9 10 6 7 7 10 10 10 10 11 11 11 11 11 11 11 12 13 13 13 13 13 12 12 12 12 11 9 8 9 10 10 9 10 11 11 10 11 10 9 8 7 6 7 7 6 5 4 5 2 4 3 4 3 3 5 4 5 5 5 5 5 5 5 5 5 6 7 8 9 8 7
7 7 7 8 8 8 8 8 8 7 7 7 9 9 9 9 12 13 11 11 11 10 10 10 10 10 10 11 11 12 13 13 13 14 14 13 13 12 13 12 9 8 8 9 10 11 10 10 10 11 10 10 10 9 10 8 7 6 7 6 5 4 2 3 4 2 5 4 4 5 5 5 6 5 5 5 6 6 6 5 7 7 8 8 8
8 7 7 7 8 8 7 7 6 7 7 7 8 9 9 10 9 10 11 12 13 12 11 11 10 8 9 11 11 11 12 13 12 13 14 14 13 13 13 12 11 8 8 9 10 10 9 9 9 9 9 9 10 9 10 10 9 7 8 7 6 4 4 5 4 4 4 3 6 4 4 5 5 6 6 6 7 7 7 6 6 6 6 8 8
8 8 8 8 8 8 8 7 7 6 6 8 8 8 9 10 10 11 11 11 11 14 12 11 10 10 11 10 11 11 11 12 12 13 14 14 13 13 13 13 13 10 9 9 9 11 12 11 10 8 9 8 8 8 9 9 9 8 9 7 7 6 6 5 4 4 6 5 4 7 6 5 5 6 6 6 5 6 7 7 6 7 6 7 7
8 8 9 8 8 8 8 8 8 7 6 7 8 9 8 9 10 12 13 12 7 8 11 11 10 10 11 11 10 10 10 10 11 12 12 14 14 14 12 14 14 12 9 9 10 11 11 12 11 10 9 9 7 8 9 8 9 8 9 8 7 7 7 6 5 5 6 7 6 4 7 8 7 7 6 7 7 6 6 6 7 7 6 6 7
8 8 8 9 9 9 9 9 8 7 7 7 7 8 7 8 11 13 15 14 11 14 11 15 11 11 11 11 11 11 10 11 11 11 12 13 13 13 12 13 13 12 10 10 10 10 10 10 10 12 11 10 8 9 9 9 8 9 10 9 8 8 7 7 6 6 6 6 6 6 4 6 5 6 8 7 7 7 7 7 7 7 7 7 8
Wind_Direction
165 157 153 142 158 159 151 143 136 147 151 150 148 147 145 144 143 143 141 138 135 136 137 138 137 136 135 134 128 125 123 122 120 117 114 113 114 114 115 116 117 117 118 119 117 116 113 111 111 111 108 103 102 99 93 91 87 86 88 93 90 88 90 89 89 89 85 75 80 86 82 80 76 77 77 74 71 56 40 25 347 88 67 73 69
158 156 147 152 154 159 154 142 139 135 151 150 148 146 144 144 143 142 140 138 136 138 139 138 137 136 135 132 128 126 125 124 121 118 116 117 118 119 119 119 119 121 121 120 118 115 115 115 115 113 110 109 104 100 98 93 91 91 91 94 93 91 89 91 93 93 90 91 90 90 89 82 77 75 76 74 71 61 49 27 19 65 69 67 65
152 152 149 151 156 158 156 146 137 135 136 149 147 145 144 144 144 142 140 138 138 140 140 139 137 136 134 131 130 130 127 126 123 120 120 121 123 122 123 124 123 124 123 120 118 117 117 117 115 116 113 108 103 102 100 98 97 95 96 95 97 96 92 88 90 89 90 92 94 100 98 88 80 77 73 72 68 65 52 48 45 50 65 64 68
149 154 157 143 154 159 155 148 137 131 141 146 146 145 143 143 144 142 140 140 140 140 140 139 137 136 135 134 133 132 130 129 127 125 123 125 126 127 129 127 128 126 123 121 119 119 119 120 119 117 112 107 106 104 103 102 100 99 96 96 97 94 93 92 91 88 99 113 137 141 105 97 92 76 71 70 68 64 65 64 65 63 70 74 72
149 151 151 152 159 159 156 149 136 134 137 146 145 145 143 142 143 142 141 140 140 140 140 138 137 137 137 138 136 134 133 132 129 127 127 128 129 132 131 130 128 129 126 123 122 122 123 121 118 115 111 108 106 106 105 104 102 99 96 95 94 95 95 93 90 89 87 118 257 230 88 89 87 79 75 72 71 68 65 65 63 62 65 65 71
152 153 150 158 160 157 155 151 145 138 130 138 144 146 143 140 137 142 140 139 139 140 139 138 137 138 140 140 139 136 134 132 130 129 129 131 134 134 133 131 131 130 127 127 125 125 124 121 117 113 111 109 108 108 107 106 105 102 101 98 97 96 93 92 94 110 138 185 216 78 77 84 86 88 72 72 68 67 66 65 61 63 63 65 62
151 150 154 159 158 156 156 151 147 138 134 133 136 142 141 135 130 139 139 138 139 139 139 138 139 141 142 142 139 136 135 133 131 131 133 135 135 134 133 132 132 130 129 128 128 128 124 120 116 114 112 112 113 112 110 108 106 104 102 101 98 97 97 92 100 130 223 232 81 82 76 76 85 84 76 69 67 64 65 66 64 65 61 56 60
153 154 159 160 157 150 156 151 150 141 135 135 134 137 134 132 131 133 136 137 138 139 140 140 141 144 144 143 140 139 139 135 134 135 136 136 135 135 134 133 131 130 131 132 131 128 126 121 119 118 116 115 116 119 120 118 115 113 108 104 103 103 100 101 100 231 271 67 69 71 80 72 78 84 77 70 65 63 61 61 68 65 58 51 55
159 159 161 159 151 151 155 154 152 146 136 133 133 133 133 133 131 131 132 136 138 139 140 142 144 146 146 144 141 141 138 137 137 137 137 136 137 135 134 133 132 133 133 134 132 129 123 121 119 117 117 116 118 122 126 125 120 119 118 117 113 113 123 129 183 227 187 73 71 63 56 79 81 83 75 66 61 55 52 84 117 79 61 54 49
159 161 162 161 155 149 155 155 153 149 137 135 135 138 135 130 131 132 136 137 141 143 145 144 147 146 146 143 140 139 139 139 138 138 138 138 138 136 134 134 135 137 136 133 133 128 123 122 121 121 117 119 124 125 126 128 131 124 124 126 128 126 132 185 205 226 74 69 74 69 50 354 75 70 69 68 62 57 58 54 50 52 54 54 54
159 160 165 160 153 148 151 152 150 148 145 139 137 139 135 131 133 134 137 141 141 145 146 148 149 148 146 142 141 142 143 141 139 139 138 140 139 137 135 135 138 138 136 134 132 127 125 125 125 120 119 122 126 132 129 129 133 132 125 134 145 148 154 210 236 77 80 83 77 96 103 129 69 67 74 68 64 62 59 56 56 57 58 57 55
162 160 163 158 138 149 147 148 148 147 148 145 141 142 143 140 140 142 142 144 147 148 148 149 149 148 144 142 143 145 144 142 139 138 140 141 139 138 135 135 135 135 133 131 129 128 125 126 121 119 120 123 130 130 135 133 133 132 138 136 142 169 204 224 244 75 66 72 72 61 62 67 70 71 67 68 68 66 62 60 60 60 60 57 55
164 163 160 150 149 147 146 146 146 147 147 146 143 146 146 143 142 144 145 144 144 147 148 148 148 146 144 143 144 144 142 140 139 139 140 141 139 138 135 134 132 129 126 124 127 124 123 121 120 118 118 123 126 131 128 129 132 133 137 148 148 165 225 255 93 99 94 76 73 78 76 73 74 66 66 71 72 67 64 61 61 59 58 56 53
166 161 162 152 151 150 144 144 145 147 149 145 146 146 141 139 141 144 142 141 144 146 150 148 145 143 141 142 143 142 141 140 139 139 140 139 137 135 135 134 131 125 122 121 120 119 120 120 117 115 116 117 123 126 128 131 135 146 148 152 162 175 223 230 61 71 68 81 69 68 74 71 67 71 72 73 71 68 65 62 60 58 53 51 49
175 163 157 155 153 154 147 141 141 145 147 146 143 145 143 141 141 139 139 141 144 146 146 145 141 136 137 140 143 143 141 139 138 140 140 137 134 133 134 132 125 120 119 121 121 121 119 115 112 114 113 114 116 120 125 127 137 140 157 165 163 196 217 93 91 77 75 69 83 79 76 81 75 75 79 77 73 70 67 62 59 56 53 51 50
172 164 162 157 156 153 154 143 136 143 146 145 143 143 145 143 144 144 143 146 148 144 139 141 140 136 138 142 147 145 142 139 139 141 139 136 130 130 130 128 125 123 123 124 123 120 116 112 112 112 114 113 115 119 120 133 133 143 156 171 181 202 223 271 84 104 89 77 81 77 85 83 87 87 87 85 80 74 70 65 62 59 54 51 49
167 164 165 155 156 157 156 154 144 140 142 143 143 141 141 141 140 141 144 144 144 140 136 138 138 138 138 140 146 144 139 138 138 139 136 125 125 127 128 125 125 126 125 123 120 117 114 112 112 111 108 106 108 106 115 127 142 144 160 179 186 191 237 270 85 82 69 74 81 83 78 96 95 92 88 89 85 81 77 74 68 61 56 51 52
159 167 163 158 157 160 159 154 146 154 150 145 140 140 143 143 142 143 145 144 142 137 135 138 140 140 140 141 142 145 140 138 136 135 128 119 120 122 124 124 124 123 122 121 117 115 112 109 106 102 95 95 93 96 101 121 138 149 166 186 186 185 215 248 79 83 83 101 90 83 85 90 107 99 93 91 91 86 81 75 68 64 56 54 53
169 172 164 160 158 157 158 154 156 160 156 158 156 147 146 144 144 144 143 143 140 138 136 137 141 140 141 141 142 141 139 135 133 123 114 117 114 112 115 116 116 117 118 116 113 110 106 101 95 90 90 88 84 71 86 98 77 145 191 195 188 188 199 227 121 102 110 138 92 87 88 108 109 106 100 96 92 88 82 72 69 64 59 54 54
175 169 168 165 159 155 156 152 159 161 161 159 158 157 151 147 144 142 140 139 137 136 137 138 139 142 144 145 146 144 138 135 130 130 121 119 131 130 109 108 108 111 111 109 108 106 101 95 94 95 91 81 66 50 44 52 348 292 205 210 203 186 194 222 82 86 95 72 64 86 105 116 115 108 104 100 96 91 84 76 72 68 61 55 56
169 172 165 163 158 154 154 152 158 158 162 161 159 161 157 151 144 141 138 138 135 136 140 138 141 144 148 149 148 151 151 145 149 147 134 137 114 115 118 106 105 106 108 107 108 107 104 104 102 98 98 56 287 237 155 145 156 230 216 213 207 210 198 218 111 100 82 110 115 96 115 119 125 115 110 103 100 94 88 82 77 70 65 61 61
80 6 347 298 158 154 153 151 157 159 158 160 159 160 157 160 153 147 145 142 138 140 145 144 144 147 148 151 156 157 159 157 158 149 159 132 129 120 118 109 104 109 110 109 110 112 113 112 111 109 140 233 256 231 170 168 170 176 192 197 209 226 164 175 181 99 91 108 93 112 121 131 129 121 101 111 105 95 92 88 78 71 71 68 65
82 98 198 280 330 222 154 152 154 156 153 153 156 156 160 163 154 153 150 148 146 154 152 151 152 151 159 163 160 163 163 164 158 166 156 147 127 132 121 118 117 115 116 116 117 117 119 119 130 168 225 237 234 186 245 152 159 179 183 198 224 238 114 148 171 96 115 77 92 118 128 136 131 119 117 118 104 99 96 91 78 76 71 70 69
169 168 160 143 161 299 187 149 148 151 155 157 154 156 159 161 156 155 151 152 153 160 155 154 153 158 162 162 165 161 163 162 149 156 140 151 135 135 130 123 123 126 133 130 133 133 142 152 166 215 222 223 201 191 299 133 336 207 188 222 252 102 178 158 153 107 91 116 106 125 132 132 131 120 121 117 108 105 96 83 83 81 77 78 81
139 132 113 113 134 121 325 311 145 150 152 154 156 157 160 159 155 152 157 156 159 162 159 159 158 163 166 167 165 164 162 152 153 169 174 161 162 166 164 172 169 159 191 172 178 154 199 172 170 207 179 144 339 40 328 351 317 341 87 315 303 118 156 135 108 108 108 102 112 127 131 128 128 122 116 112 113 110 98 88 86 82 85 82 73
113 104 106 121 123 115 143 284 282 160 146 155 163 159 165 154 161 160 162 160 167 167 169 166 162 164 168 169 157 160 160 158 158 181 184 169 171 175 181 179 179 172 175 180 177 167 182 180 182 156 155 167 177 80 342 324 317 356 29 58 270 154 134 115 115 106 93 103 121 126 127 124 121 122 117 110 113 110 99 94 86 87 90 84 77
88 101 114 103 104 104 135 118 292 252 164 168 174 161 167 163 168 168 171 170 173 173 173 171 167 166 169 163 164 163 166 165 163 181 190 178 179 178 183 176 179 176 172 184 165 169 193 168 171 177 166 186 201 89 246 48 345 331 25 5 67 121 112 108 120 114 90 100 119 127 123 121 118 106 113 115 115 112 108 98 92 91 92 84 87
117 126 80 129 137 134 136 148 123 302 276 184 167 167 173 168 171 168 170 168 176 176 176 173 163 171 171 166 167 172 168 167 170 174 187 189 186 180 178 176 184 180 171 188 173 176 177 169 142 161 223 189 169 39 356 11 15 15 5 64 123 101 92 96 100 101 103 109 129 123 119 118 117 115 114 114 119 120 112 102 97 97 98 91 86
155 154 155 181 161 147 143 144 151 175 284 275 183 178 173 177 172 173 175 164 178 179 176 169 168 173 175 172 175 175 175 175 178 176 177 189 191 187 182 181 183 182 171 186 185 161 169 177 159 197 178 212 171 78 330 10 22 38 28 85 91 98 96 101 109 104 103 120 128 125 121 120 124 125 121 121 122 121 115 106 103 105 100 92 97
213 186 171 154 148 139 139 146 163 157 188 304 288 191 177 184 180 179 176 173 181 180 172 174 173 175 175 182 180 178 179 176 180 182 179 178 187 189 190 183 182 175 180 179 179 173 167 167 178 196 174 174 54 70 303 342 97 64 55 88 88 91 101 98 110 113 100 106 117 128 122 124 125 128 124 121 125 128 119 111 108 105 107 97 102
178 165 168 159 149 145 149 151 154 158 156 175 276 277 193 189 187 183 176 182 179 177 176 174 177 178 177 181 183 183 183 178 178 186 180 175 180 185 195 188 187 178 184 177 169 164 156 148 170 155 115 5 70 90 308 354 55 83 81 93 96 90 83 93 93 97 118 130 128 140 130 127 132 134 130 128 132 136 122 116 111 109 109 107 111
148 168 148 170 163 151 127 128 139 185 167 153 164 276 292 215 189 193 182 184 177 179 180 181 179 181 176 181 184 186 188 176 174 184 189 180 182 187 192 196 194 186 188 183 171 166 162 153 129 114 46 304 206 161 154 349 26 41 81 77 83 93 92 91 98 101 108 113 96 133 140 136 134 135 128 128 132 129 127 120 114 112 116 110 109
115 181 160 175 181 148 133 148 159 165 179 176 162 180 257 295 231 195 187 189 181 183 184 184 183 180 178 182 185 188 190 180 173 179 186 188 187 186 190 191 194 190 181 181 162 160 161 150 160 139 167 192 241 175 250 148 124 61 3 95 90 76 88 89 97 105 109 124 129 141 130 146 138 129 126 129 133 135 134 126 119 116 122 117 118
70 138 172 182 184 168 146 157 170 171 162 168 169 176 197 256 264 212 188 189 185 189 186 186 184 183 182 187 190 188 192 184 175 177 180 192 192 193 192 188 191 183 172 167 179 185 184 180 167 174 156 202 199 188 207 190 193 135 79 44 73 74 94 96 105 106 116 121 104 114 143 146 141 141 130 131 136 133 137 135 130 129 138 129 119
20 101 178 224 225 172 147 160 169 174 171 168 179 173 181 236 278 275 211 187 186 189 187 189 189 191 185 188 193 192 193 189 178 176 184 186 196 201 199 193 186 182 185 180 192 188 191 186 184 186 162 194 196 184 137 140 258 70 64 334 92 113 73 97 105 122 117 112 126 111 113 142 128 128 141 136 139 142 141 145 139 138 144 113 116
61 16 343 198 239 188 144 162 180 180 180 177 180 186 169 165 266 285 294 226 188 186 186 191 193 192 191 189 193 194 192 189 177 182 185 187 190 203 207 197 191 191 194 178 193 187 189 190 177 192 167 184 193 168 197 147 196 65 61 76 100 166 123 114 119 121 120 139 131 124 134 156 190 145 137 128 142 140 148 153 149 140 142 130 119
118 111 59 328 260 209 155 166 196 198 175 172 183 171 178 198 218 254 256 254 248 193 184 190 195 199 197 195 189 194 197 188 183 183 186 185 188 196 199 202 193 205 195 188 195 193 177 179 172 188 181 189 192 178 167 181 156 155 97 100 87 149 123 118 135 120 109 119 128 122 146 108 92 125 152 148 139 146 151 157 156 156 142 131 123
51 104 128 125 321 300 201 170 188 194 177 170 184 183 193 190 210 232 239 210 236 209 188 190 193 202 205 199 187 195 202 195 191 185 187 193 185 182 191 191 196 205 207 202 200 194 177 175 168 171 178 199 203 182 181 168 161 159 116 59 49 136 119 129 109 133 151 138 128 98 92 105 118 110 143 142 124 137 149 154 153 165 149 136 133
9 28 99 69 37 338 288 201 213 218 201 180 172 182 221 224 229 227 229 219 218 210 214 193 196 197 207 207 195 193 202 200 200 196 189 190 190 183 181 184 193 201 208 209 205 195 176 170 167 159 162 186 181 180 181 150 163 140 110 84 102 115 118 117 144 145 109 91 104 117 120 133 138 168 141 145 130 149 156 157 163 158 159 167 134
8 5 5 47 74 18 349 269 225 225 212 182 152 182 215 224 223 218 214 210 207 193 195 200 196 197 200 209 204 194 199 202 201 201 201 194 193 186 183 186 192 196 203 210 207 197 179 168 171 160 160 159 174 172 174 184 150 138 107 107 108 132 127 133 123 137 140 137 142 145 120 136 110 180 161 148 145 150 150 162 158 154 157 164 129
13 9 9 3 350 17 2 341 290 227 192 186 174 203 207 214 214 216 219 214 214 202 198 200 204 205 205 207 207 202 202 206 208 206 207 201 196 191 183 188 188 193 203 206 213 210 187 176 168 166 164 170 176 183 166 172 170 163 170 140 128 120 125 146 137 139 145 163 139 137 119 131 131 188 139 160 144 148 172 144 157 151 167 153 148
8 8 9 3 346 343 18 357 331 282 216 196 194 197 210 216 216 221 219 217 211 212 210 207 210 212 206 208 209 208 204 208 211 211 211 209 202 203 192 186 187 187 200 206 203 210 191 184 171 163 179 179 174 176 168 181 193 222 188 171 158 157 143 138 147 141 162 149 142 130 133 132 151 51 81 207 160 160 169 144 149 164 162 161 155
355 8 4 357 2 349 339 352 336 320 290 236 217 218 219 223 226 225 223 220 216 217 216 215 214 215 211 210 208 210 209 208 209 211 213 215 214 211 203 192 186 180 187 203 203 198 192 193 183 176 174 182 175 171 175 202 221 195 214 197 189 186 161 169 135 144 150 130 172 158 151 146 182 168 202 174 153 169 171 169 167 163 162 175 164
355 357 0 353 349 346 341 333 331 318 305 300 254 243 240 240 239 240 236 234 222 209 215 214 217 215 216 214 214 210 210 214 214 213 214 215 217 217 216 209 194 191 182 196 206 202 192 199 199 189 172 170 175 173 184 196 228 170 197 218 184 227 197 188 166 124 140 159 203 175 167 159 167 192 234 202 168 172 168 174 166 164 172 170 181
352 352 348 345 339 332 332 330 319 311 307 304 297 257 250 258 273 262 250 238 230 226 217 218 215 214 217 214 214 211 209 209 212 214 215 216 216 217 218 215 202 199 192 194 205 210 198 200 202 198 183 174 168 157 180 190 203 201 257 178 177 219 246 128 170 139 149 155 179 185 169 170 183 174 149 251 178 166 159 164 174 165 166 184 180
345 347 337 332 329 326 326 328 320 314 311 301 296 276 245 213 233 233 232 226 219 218 219 218 214 212 214 215 216 214 213 212 214 215 216 217 217 217 219 219 204 204 202 198 200 205 208 201 202 201 191 182 165 156 169 189 201 200 239 240 318 324 176 149 238 173 175 120 142 182 176 182 183 193 183 200 177 174 167 179 174 170 167 187 177
340 333 331 325 320 319 322 321 319 318 311 296 284 288 257 227 226 229 234 235 228 220 221 224 224 220 216 218 216 216 217 215 216 215 215 217 220 219 219 222 214 206 205 206 200 201 204 206 204 202 204 188 179 175 169 169 184 195 208 218 233 227 257 199 221 214 203 154 169 179 178 191 188 196 200 202 199 179 191 181 173 177 173 180 181
333 328 323 319 315 313 311 308 306 308 306 301 289 277 274 243 225 232 236 234 240 229 221 222 222 223 214 212 217 215 216 218 215 219 218 216 219 220 219 219 221 211 208 211 207 196 199 204 211 206 208 198 190 190 172 170 178 182 192 195 201 215 227 218 267 274 278 238 175 181 170 186 206 208 203 208 203 193 180 187 186 185 184 179 181
333 325 320 318 310 307 306 304 303 300 299 306 301 287 275 277 244 222 233 240 236 248 239 230 229 223 226 218 220 221 219 218 218 217 220 217 214 218 221 221 219 218 212 216 213 202 196 197 197 205 203 197 194 192 180 176 182 179 176 190 193 203 208 221 227 233 253 245 225 180 176 183 212 211 209 212 208 207 193 185 191 181 189 178 178
329 322 316 312 311 308 303 304 302 301 298 300 300 294 287 282 263 230 222 231 238 261 259 254 236 227 229 227 225 224 219 211 212 214 215 222 221 216 218 222 220 218 216 217 216 211 201 198 196 198 200 195 185 193 193 183 185 179 183 176 192 196 213 212 205 220 233 260 273 235 163 176 201 201 191 202 201 210 199 187 180 183 192 180 177
329 321 317 314 312 306 302 298 299 297 293 290 292 292 289 272 268 249 229 222 220 228 232 242 243 235 230 228 227 226 222 220 211 210 207 212 220 221 216 221 220 218 220 215 215 211 206 204 197 194 199 200 191 190 197 197 189 183 185 187 196 199 209 208 212 212 229 219 223 244 202 196 220 169 183 191 203 203 202 192 184 184 181 186 174